カタログに戻る

COSMOS 2251 DEB

運用中LEO
NORAD 36060·DEBRIS·🇷🇺 Russia

打ち上げ Jun 16, 1993 から Plesetsk Cosmodrome

Loading…

次のパス (今後24時間)

TLE

最新Source: Space-Track

元期: Sep 14, 2026, 05:11 UTC

1 36060U 93036AXX 26257.21626540  .00000547  00000-0  17287-3 0  9998
2 36060  74.0270  83.4510 0014562 119.0923 241.1693 14.42508937889814

AllMySatでCOSMOS 2251 DEBをリアルタイム追跡

Download on the App Store